Temp
2 2 2 2 2 2 2 2 2 2 2 2 2 2 1 1 1 1 1 1 2 2 2 2 3 3 3 3 3 3 3 2 2 1 1 1 1 0 0 -0 -1 -1 -1 -2 -2 -3 -3 -3 -4 -4 -4 -5 -5 -5 -5 -5 -5 -5 -5 -5 -6 -6 -6 -6 -6 -6 -7 -7 -7
2 2 2 2 2 2 2 1 1 1 1 2 2 2 2 1 1 1 1 1 2 2 2 3 3 3 3 3 3 3 3 2 2 1 1 1 1 0 -0 -0 -1 -1 -1 -2 -2 -3 -3 -3 -4 -4 -4 -5 -5 -5 -5 -5 -5 -5 -5 -5 -6 -6 -6 -7 -7 -7 -7 -7 -8
2 2 2 2 2 2 1 1 1 1 1 1 1 1 1 1 1 1 1 2 2 2 2 2 3 3 3 3 3 3 3 3 2 2 1 1 0 0 -0 -1 -1 -1 -2 -2 -2 -3 -3 -3 -4 -4 -4 -5 -5 -5 -5 -5 -5 -5 -5 -6 -6 -6 -7 -7 -7 -7 -7 -8 -8
2 2 2 2 1 1 1 1 1 1 1 1 1 1 1 1 1 1 1 2 2 2 2 2 3 3 3 3 3 3 3 3 2 2 1 1 0 0 -0 -1 -1 -1 -2 -2 -2 -3 -3 -3 -4 -4 -4 -5 -5 -5 -5 -5 -5 -5 -6 -6 -6 -6 -7 -7 -7 -7 -7 -8 -8
2 2 2 2 2 2 1 1 1 1 1 1 1 0 1 1 1 1 1 1 1 1 2 2 3 3 3 3 3 3 3 2 2 1 1 1 0 -0 -0 -1 -1 -2 -2 -2 -2 -3 -3 -4 -4 -4 -4 -5 -5 -5 -5 -5 -5 -5 -6 -6 -6 -7 -7 -7 -7 -7 -7 -7 -8
2 2 2 2 2 1 1 1 1 1 1 0 0 0 0 0 0 0 0 1 1 1 2 2 2 2 2 2 2 2 2 2 2 1 1 0 0 -0 -1 -1 -1 -2 -2 -2 -3 -3 -3 -4 -4 -4 -4 -5 -5 -5 -5 -5 -5 -6 -6 -6 -7 -7 -7 -7 -7 -7 -7 -7 -8
2 2 2 1 1 1 1 1 1 1 1 0 0 0 0 0 0 0 0 1 1 1 1 1 2 2 2 2 2 2 2 1 1 1 1 0 -0 -1 -1 -1 -1 -2 -2 -2 -3 -3 -3 -4 -4 -4 -4 -5 -5 -5 -5 -5 -5 -6 -6 -6 -7 -7 -7 -7 -7 -7 -7 -7 -7
2 2 2 1 1 1 1 1 1 0 0 0 0 0 0 0 0 0 0 0 0 0 1 1 1 1 2 2 2 2 2 1 1 1 0 -0 -0 -1 -1 -1 -1 -2 -2 -2 -3 -3 -3 -4 -4 -4 -4 -5 -5 -5 -5 -5 -5 -6 -6 -6 -7 -7 -7 -7 -7 -7 -7 -7 -7
2 2 2 1 1 1 1 1 0 0 0 0 0 0 0 -0 -0 -0 -0 -0 0 0 1 1 1 1 2 2 2 2 2 1 1 1 0 -0 -0 -1 -1 -1 -2 -2 -2 -3 -3 -3 -3 -4 -4 -4 -4 -5 -5 -6 -6 -5 -5 -6 -6 -6 -7 -7 -7 -7 -7 -7 -7 -7 -7
2 2 1 1 1 1 1 0 0 0 0 0 0 -0 -0 -0 -0 -0 -0 -0 -0 0 0 1 1 1 1 1 1 1 1 1 1 1 0 -0 -0 -1 -1 -1 -1 -2 -2 -3 -3 -3 -3 -4 -4 -4 -4 -5 -5 -5 -5 -5 -6 -6 -6 -6 -7 -7 -7 -7 -7 -7 -7 -7 -7
2 2 1 1 1 0 0 -0 -0 -0 -0 -0 -0 -0 -0 -1 -1 -0 -0 -0 -0 -0 -0 0 0 1 1 1 1 1 1 1 1 1 0 -0 -0 -0 -1 -1 -1 -2 -2 -2 -3 -3 -3 -4 -4 -4 -4 -5 -5 -5 -5 -6 -6 -6 -6 -6 -6 -6 -7 -7 -7 -7 -7 -7 -7
2 2 1 1 1 0 -0 -0 -0 -1 -1 -1 -1 -1 -1 -1 -1 -1 -1 -1 -1 -0 -0 0 0 1 1 1 1 1 1 1 1 0 0 0 -0 -0 -1 -1 -1 -1 -2 -2 -2 -3 -3 -3 -3 -4 -4 -4 -5 -5 -5 -5 -6 -6 -6 -6 -6 -6 -6 -6 -6 -7 -7 -7 -7
2 2 1 1 1 0 -0 -0 -1 -1 -1 -1 -1 -1 -1 -1 -1 -1 -1 -1 -1 -1 -1 -0 -0 0 1 1 1 1 1 1 1 0 0 0 -0 -0 -1 -1 -1 -1 -2 -2 -2 -3 -3 -3 -3 -4 -4 -4 -5 -5 -5 -5 -6 -6 -6 -6 -6 -6 -6 -6 -6 -6 -7 -7 -7
2 1 1 1 0 -0 -0 -1 -1 -1 -1 -1 -1 -1 -1 -1 -1 -1 -1 -1 -1 -1 -1 -1 -1 -0 0 0 0 1 1 1 0 0 0 0 -0 -0 -1 -1 -1 -1 -2 -2 -2 -3 -3 -3 -3 -3 -4 -4 -5 -5 -5 -5 -5 -6 -6 -6 -6 -6 -6 -6 -6 -6 -7 -7 -7
2 1 1 1 0 -0 -0 -1 -1 -1 -1 -1 -1 -1 -1 -2 -2 -2 -2 -2 -1 -1 -1 -1 -1 -1 -0 -0 0 0 0 0 0 0 0 -0 -0 -0 -1 -1 -1 -1 -2 -2 -2 -2 -3 -3 -3 -3 -4 -4 -4 -5 -5 -5 -5 -5 -5 -6 -6 -6 -6 -6 -6 -6 -6 -6 -7
1 1 1 0 0 -0 -1 -1 -1 -1 -1 -1 -1 -1 -2 -2 -2 -2 -2 -2 -2 -2 -2 -2 -1 -1 -1 -1 -0 -0 -0 -0 -0 0 0 -0 -0 -0 -1 -1 -1 -1 -1 -2 -2 -2 -2 -3 -3 -3 -4 -4 -4 -5 -5 -5 -5 -5 -5 -5 -5 -5 -6 -6 -6 -6 -6 -6 -6
1 1 1 0 -0 -0 -1 -1 -1 -1 -1 -1 -1 -2 -2 -2 -2 -2 -2 -2 -2 -2 -2 -2 -2 -2 -1 -1 -1 -1 -1 -1 -1 -0 -0 0 0 -0 -0 -1 -1 -1 -1 -1 -2 -2 -2 -2 -3 -3 -4 -4 -4 -4 -5 -5 -5 -5 -5 -5 -5 -5 -5 -5 -5 -5 -5 -6 -6
1 1 1 0 -0 -0 -1 -1 -1 -1 -1 -1 -1 -2 -2 -2 -2 -2 -2 -2 -2 -2 -2 -2 -2 -2 -2 -1 -1 -1 -1 -1 -1 -0 0 0 0 0 -0 -0 -1 -1 -1 -1 -2 -2 -2 -2 -3 -3 -4 -4 -4 -4 -5 -5 -5 -5 -5 -5 -5 -5 -5 -5 -5 -5 -5 -5 -6
1 1 1 0 -0 -0 -0 -1 -1 -1 -1 -1 -1 -2 -2 -2 -2 -2 -3 -3 -3 -2 -2 -2 -2 -2 -2 -2 -1 -1 -1 -1 -1 -0 0 0 0 -0 -0 -0 -1 -1 -1 -1 -1 -2 -2 -2 -3 -3 -4 -4 -4 -4 -5 -5 -5 -5 -5 -5 -5 -5 -5 -5 -5 -5 -5 -5 -5
1 1 1 0 0 -0 -0 -1 -1 -1 -1 -1 -2 -2 -2 -2 -2 -2 -3 -3 -3 -3 -3 -3 -3 -2 -2 -2 -2 -1 -1 -1 -0 0 0 0 -0 -0 -0 -1 -1 -1 -1 -1 -1 -2 -2 -2 -3 -3 -4 -4 -4 -4 -5 -5 -5 -5 -5 -5 -5 -5 -5 -5 -5 -5 -5 -5 -5
1 1 1 1 0 -0 -0 -1 -1 -1 -1 -2 -2 -2 -2 -2 -2 -3 -3 -3 -3 -3 -3 -3 -3 -3 -2 -2 -2 -2 -1 -1 -1 -0 -0 -0 -0 -0 -0 -1 -1 -1 -1 -1 -2 -2 -2 -3 -3 -3 -4 -4 -4 -4 -4 -5 -5 -5 -5 -5 -5 -5 -5 -5 -5 -4 -4 -5 -5
1 1 1 1 0 -0 -0 -1 -1 -1 -2 -2 -2 -2 -2 -2 -3 -3 -3 -3 -3 -3 -3 -3 -3 -3 -3 -2 -2 -2 -1 -1 -1 -1 -1 -1 -1 -1 -1 -1 -1 -1 -1 -2 -2 -2 -2 -3 -3 -3 -4 -4 -4 -4 -4 -5 -5 -5 -5 -5 -5 -5 -5 -5 -5 -4 -4 -5 -5
1 1 1 0 0 -0 -0 -1 -1 -1 -2 -2 -2 -2 -2 -2 -3 -3 -3 -3 -3 -3 -3 -3 -3 -3 -3 -2 -2 -2 -2 -2 -2 -2 -1 -1 -1 -1 -1 -2 -2 -2 -2 -2 -2 -2 -3 -3 -3 -4 -4 -4 -4 -4 -4 -5 -5 -5 -5 -5 -5 -5 -4 -4 -4 -4 -5 -5 -5
1 1 1 0 -0 -0 -1 -1 -1 -2 -2 -2 -2 -2 -2 -3 -3 -3 -3 -3 -3 -3 -3 -3 -3 -3 -3 -3 -2 -2 -2 -3 -3 -3 -2 -2 -2 -2 -2 -2 -2 -2 -2 -2 -2 -2 -3 -3 -3 -4 -4 -4 -4 -4 -4 -5 -5 -5 -5 -5 -5 -5 -5 -4 -4 -4 -5 -5 -5
1 1 0 0 -0 -1 -1 -1 -1 -2 -2 -2 -2 -2 -3 -3 -3 -3 -3 -3 -3 -3 -3 -3 -3 -3 -3 -3 -3 -3 -3 -3 -3 -3 -3 -3 -3 -2 -3 -3 -2 -2 -2 -2 -2 -2 -3 -3 -4 -4 -4 -4 -4 -4 -4 -4 -4 -5 -5 -5 -5 -5 -5 -5 -4 -4 -4 -4 -4
1 1 0 -0 -0 -1 -1 -1 -1 -2 -2 -2 -2 -3 -3 -3 -3 -3 -3 -3 -3 -3 -3 -3 -3 -3 -4 -4 -4 -4 -4 -4 -4 -4 -3 -3 -3 -3 -3 -3 -2 -2 -2 -2 -2 -3 -3 -4 -4 -4 -4 -4 -4 -4 -4 -4 -4 -4 -4 -4 -5 -5 -5 -5 -5 -5 -4 -4 -4
1 0 0 -0 -0 -1 -1 -1 -1 -2 -2 -2 -2 -3 -3 -3 -3 -3 -4 -4 -4 -4 -4 -4 -4 -4 -4 -4 -4 -5 -5 -5 -4 -4 -4 -3 -3 -3 -3 -3 -2 -2 -2 -2 -2 -3 -3 -4 -4 -4 -4 -4 -4 -4 -4 -5 -5 -5 -5 -5 -5 -5 -5 -5 -5 -5 -4 -4 -4
1 1 0 0 -0 -1 -1 -1 -1 -2 -2 -2 -2 -2 -3 -3 -3 -3 -4 -4 -4 -4 -4 -4 -4 -4 -5 -5 -5 -5 -5 -5 -5 -5 -4 -4 -3 -3 -3 -3 -2 -1 -1 -1 -2 -3 -3 -4 -4 -4 -4 -4 -4 -4 -4 -5 -5 -5 -5 -5 -5 -5 -5 -5 -5 -4 -4 -4 -4
1 1 0 -0 -0 -1 -1 -1 -1 -1 -2 -2 -2 -2 -3 -3 -3 -3 -4 -4 -4 -4 -4 -4 -5 -5 -5 -5 -5 -5 -5 -5 -5 -5 -5 -4 -4 -4 -3 -3 -2 -1 -1 -1 -2 -3 -3 -3 -3 -3 -3 -3 -4 -4 -4 -4 -4 -4 -4 -4 -4 -4 -4 -4 -4 -4 -4 -4 -4
1 1 0 -0 -0 -1 -1 -1 -1 -1 -1 -1 -2 -2 -3 -3 -3 -3 -4 -4 -4 -4 -4 -5 -5 -5 -5 -5 -5 -6 -6 -5 -5 -5 -5 -5 -4 -4 -4 -3 -2 -1 -1 -1 -2 -3 -3 -3 -3 -3 -3 -3 -3 -3 -4 -4 -4 -4 -4 -4 -4 -4 -4 -3 -3 -3 -3 -3 -3
1 1 0 -0 -1 -1 -1 -1 -1 -1 -1 -2 -2 -2 -3 -3 -3 -3 -4 -4 -4 -4 -4 -5 -5 -5 -5 -5 -5 -6 -6 -6 -5 -5 -5 -5 -4 -4 -4 -3 -2 -1 -1 -2 -2 -3 -3 -3 -3 -3 -3 -2 -3 -3 -3 -3 -3 -3 -3 -3 -3 -3 -3 -3 -3 -3 -3 -3 -3
1 0 -0 -0 -1 -1 -1 -1 -1 -1 -2 -2 -2 -2 -3 -3 -3 -3 -4 -4 -4 -4 -5 -5 -5 -5 -5 -5 -5 -6 -6 -6 -6 -5 -5 -5 -4 -4 -4 -3 -2 -1 -1 -2 -2 -3 -3 -3 -3 -3 -3 -2 -2 -3 -3 -3 -3 -3 -3 -3 -3 -3 -3 -3 -3 -3 -3 -3 -3
0 0 -0 -1 -1 -1 -1 -1 -2 -2 -2 -2 -2 -2 -3 -3 -3 -3 -4 -4 -4 -4 -5 -5 -5 -5 -6 -6 -6 -6 -6 -6 -6 -5 -5 -5 -4 -4 -4 -4 -3 -2 -1 -2 -2 -3 -3 -3 -3 -3 -3 -2 -2 -2 -3 -3 -3 -3 -3 -3 -3 -3 -3 -3 -3 -3 -3 -3 -3
0 -0 -1 -1 -1 -1 -1 -1 -2 -2 -3 -3 -3 -3 -3 -3 -3 -4 -4 -4 -4 -4 -5 -5 -5 -5 -5 -5 -6 -6 -6 -6 -6 -5 -5 -5 -5 -4 -4 -4 -3 -2 -1 -2 -2 -3 -3 -3 -3 -3 -3 -2 -2 -2 -3 -3 -3 -3 -3 -3 -3 -3 -3 -3 -3 -3 -3 -3 -3
0 -0 -1 -1 -1 -1 -1 -2 -2 -3 -3 -3 -3 -3 -3 -3 -4 -4 -4 -4 -4 -4 -5 -5 -5 -5 -5 -5 -5 -6 -6 -6 -6 -5 -5 -5 -5 -5 -4 -4 -3 -2 -1 -2 -2 -3 -3 -3 -3 -3 -3 -3 -3 -3 -3 -3 -3 -3 -3 -3 -3 -3 -3 -3 -3 -3 -3 -3 -3
0 -0 -1 -1 -1 -1 -1 -2 -2 -3 -3 -3 -3 -3 -4 -4 -4 -4 -4 -4 -4 -4 -5 -5 -5 -5 -5 -5 -6 -6 -6 -6 -6 -5 -5 -5 -5 -5 -5 -4 -2 -1 -1 -2 -2 -3 -3 -3 -3 -3 -3 -3 -3 -3 -3 -3 -3 -3 -3 -3 -3 -3 -3 -3 -3 -3 -4 -4 -4
0 -0 -1 -1 -1 -1 -1 -2 -2 -3 -3 -3 -3 -3 -4 -4 -4 -4 -4 -4 -4 -4 -4 -5 -5 -5 -5 -5 -6 -6 -6 -5 -5 -5 -5 -5 -5 -5 -4 -4 -2 -1 -1 -2 -2 -3 -3 -3 -3 -3 -3 -3 -3 -3 -3 -3 -3 -3 -3 -3 -3 -3 -3 -3 -4 -4 -4 -4 -4
1 0 -0 -1 -1 -1 -1 -2 -2 -2 -3 -3 -3 -3 -3 -3 -4 -4 -4 -4 -4 -4 -4 -4 -5 -5 -5 -5 -5 -5 -5 -5 -5 -5 -5 -5 -5 -5 -4 -3 -2 -1 -1 -2 -2 -3 -3 -3 -3 -3 -3 -3 -3 -3 -3 -3 -3 -3 -3 -3 -4 -4 -4 -4 -4 -4 -4 -4 -4
1 1 0 -0 -1 -1 -1 -2 -2 -2 -2 -2 -3 -3 -3 -3 -3 -4 -4 -4 -4 -4 -4 -4 -4 -5 -5 -5 -5 -5 -6 -6 -5 -5 -5 -5 -5 -5 -4 -3 -2 -1 -1 -2 -2 -3 -3 -3 -3 -3 -3 -3 -3 -3 -3 -3 -3 -3 -4 -4 -4 -4 -4 -4 -4 -4 -4 -4 -4
2 1 0 -0 -1 -1 -1 -2 -2 -2 -2 -2 -2 -3 -3 -3 -3 -3 -4 -4 -4 -4 -4 -4 -4 -5 -5 -5 -5 -5 -6 -6 -5 -5 -5 -5 -5 -4 -4 -3 -2 -1 -1 -2 -2 -3 -3 -3 -3 -3 -3 -3 -3 -3 -3 -3 -3 -4 -4 -4 -4 -4 -4 -4 -4 -4 -4 -4 -4
2 1 1 0 -0 -1 -1 -1 -1 -1 -1 -2 -2 -2 -2 -3 -3 -3 -4 -4 -4 -4 -4 -4 -4 -4 -5 -5 -5 -5 -6 -6 -6 -5 -5 -5 -5 -4 -4 -3 -2 -2 -1 -2 -2 -3 -3 -3 -3 -3 -3 -3 -3 -3 -3 -3 -3 -4 -4 -4 -4 -4 -4 -4 -5 -4 -4 -4 -4
Height
767 767 767 768 768 769 769 769 770 771 772 772 772 773 774 776 777 778 778 779 780 781 782 784 785 787 789 791 792 793 795 797 799 801 802 804 805 806 807 809 810 811 812 814 815 816 816 817 818 819 819 819 820 821 821 821 822 822 823 823 823 823 823 823 823 823 823 823 823
762 763 764 765 766 767 767 767 767 768 768 768 769 770 771 772 773 774 775 776 777 778 780 781 783 784 786 788 789 791 792 794 796 798 800 801 802 804 805 806 808 809 810 811 812 813 814 815 816 816 816 817 817 818 818 819 820 820 821 821 821 821 821 821 821 821 821 821 821
758 760 761 762 763 763 763 763 763 764 765 765 766 767 768 769 771 771 772 773 774 776 777 778 780 782 783 785 787 788 790 792 793 795 797 798 800 802 803 804 805 806 808 809 810 810 811 812 813 814 814 814 815 816 816 816 817 818 818 818 819 819 819 819 818 819 819 818 818
755 756 757 757 758 758 759 759 760 761 762 763 764 765 766 767 768 769 770 771 772 773 774 776 777 779 781 782 784 785 787 789 791 793 795 796 797 799 800 802 803 804 805 806 807 808 809 810 811 811 811 812 812 813 814 814 815 816 816 816 816 816 816 816 816 816 816 816 816
752 752 752 753 753 754 756 757 758 759 760 762 762 763 764 765 766 767 768 769 769 770 771 773 775 776 778 779 781 783 785 787 788 790 792 793 795 796 798 799 800 801 802 803 804 806 806 807 808 809 809 809 810 811 811 812 813 813 814 814 814 814 814 814 814 814 814 814 814
749 749 750 750 751 752 754 756 757 757 759 760 761 761 762 762 764 765 766 766 767 768 769 771 772 774 775 777 778 780 782 784 786 788 789 791 792 794 795 797 798 799 800 801 802 803 804 805 806 806 806 807 807 808 809 810 811 811 811 811 811 811 811 811 811 812 811 811 811
748 748 749 749 750 751 752 753 754 756 757 757 758 758 759 760 761 762 763 764 765 767 768 769 770 772 773 774 776 778 780 782 783 785 787 788 790 791 792 794 795 796 797 798 800 801 802 803 803 804 804 805 805 806 806 807 808 808 809 809 809 809 809 809 809 809 809 809 809
747 747 747 747 748 749 750 751 752 753 754 755 755 755 756 757 759 760 762 763 764 765 766 767 768 769 770 772 773 775 777 779 781 782 784 786 787 788 790 791 792 794 795 796 797 798 799 800 801 801 802 802 803 803 804 805 806 806 806 806 806 806 806 806 806 806 806 806 806
745 745 745 746 746 747 748 749 750 751 751 752 752 753 754 756 757 758 760 761 762 763 764 765 766 767 768 769 771 772 774 776 778 780 781 783 784 786 787 789 790 791 792 794 795 796 797 797 798 798 799 799 800 801 801 802 803 803 803 804 804 804 804 804 804 804 804 804 803
742 742 742 743 744 744 746 747 748 748 749 749 750 751 753 754 755 757 758 759 760 762 762 763 764 765 766 767 768 770 772 773 775 777 778 780 782 783 784 786 787 788 790 791 792 793 794 795 795 796 796 797 797 798 799 800 800 801 801 801 801 801 801 802 802 802 802 801 801
739 739 740 741 741 742 743 745 745 746 747 747 748 749 751 752 753 754 756 757 759 760 760 761 762 763 764 765 766 768 769 771 773 774 776 777 779 780 782 783 784 786 787 788 790 791 792 792 792 793 793 794 795 796 797 797 798 798 798 798 799 799 799 799 799 799 799 799 798
737 737 738 738 739 740 742 742 742 743 744 745 746 747 748 749 750 752 753 755 757 757 758 759 760 761 762 763 764 766 767 769 770 772 773 775 776 778 779 781 782 783 784 786 787 788 789 789 789 790 791 792 792 793 794 794 795 796 796 796 796 796 796 796 796 797 797 796 796
735 736 736 737 737 738 739 740 740 741 742 742 743 744 745 746 747 749 751 752 753 754 756 757 758 759 760 761 762 763 765 767 768 769 771 772 774 776 777 778 779 781 782 783 784 785 786 786 787 787 788 789 790 790 791 792 792 793 793 793 793 793 793 793 794 794 794 794 793
733 734 734 735 736 736 737 737 738 738 739 740 741 742 743 744 745 747 748 749 751 752 753 755 756 757 758 759 760 761 762 764 766 767 768 770 772 773 774 775 777 778 779 780 782 782 783 783 784 785 785 786 787 787 788 789 790 790 790 791 791 791 791 791 791 792 792 791 791
731 731 732 733 733 734 734 735 735 736 737 737 738 739 741 742 743 744 746 747 748 750 751 752 753 755 756 757 758 759 761 762 763 764 766 767 769 770 771 772 774 775 776 777 778 779 780 781 781 782 783 783 784 785 786 787 787 787 787 788 788 788 788 788 788 789 789 788 788
728 728 729 730 731 731 731 732 732 733 734 735 736 737 739 740 741 742 743 745 746 747 749 750 751 752 754 755 756 757 758 759 761 762 763 765 766 767 768 769 770 772 773 774 776 777 777 778 779 779 780 781 782 782 783 784 784 785 785 785 785 785 785 786 786 786 786 786 786
725 726 726 727 727 727 728 728 729 730 731 732 733 735 736 737 738 740 741 742 743 745 746 747 748 750 751 752 754 755 756 757 758 759 760 761 762 764 765 766 767 768 770 772 773 774 775 776 776 777 778 778 779 780 781 781 782 782 782 782 782 782 782 783 783 783 783 783 783
722 723 723 724 724 724 724 725 726 727 728 730 731 732 733 735 736 737 738 740 741 742 743 744 746 747 748 750 751 752 753 754 755 756 757 758 759 761 762 763 764 766 767 769 770 771 772 773 774 774 775 776 777 777 778 779 779 779 780 780 780 780 780 780 781 781 781 780 780
720 720 721 721 721 721 722 723 724 725 727 728 729 730 731 732 733 735 736 737 738 739 741 742 743 745 746 747 748 749 750 751 751 752 754 755 757 758 759 760 762 763 764 766 768 769 770 771 771 772 773 773 774 775 776 776 777 777 777 777 777 777 777 777 778 778 778 778 777
718 718 718 718 719 719 720 721 722 724 725 727 728 728 729 730 731 732 734 735 736 737 739 740 741 742 743 744 745 746 747 747 748 750 751 752 754 755 756 757 759 760 762 764 765 767 767 768 769 769 770 771 772 772 773 773 774 774 774 774 775 775 775 775 775 775 775 775 774
716 716 716 716 717 718 718 719 721 722 724 725 726 727 728 729 730 731 732 732 734 736 737 737 738 739 740 741 742 743 744 745 746 747 748 750 751 752 753 755 756 758 760 762 763 764 765 766 766 767 767 768 769 770 770 771 771 772 772 772 772 772 772 772 773 772 772 772 772
713 714 714 715 716 716 717 718 720 721 722 723 725 726 727 727 728 729 730 731 733 734 734 735 736 736 737 738 739 740 742 743 744 745 746 747 748 750 751 752 754 755 757 759 760 762 762 763 764 764 765 766 767 767 768 768 769 769 769 769 769 769 770 770 770 770 770 769 769
712 713 713 714 715 716 717 717 718 719 721 722 723 724 725 725 726 727 728 730 731 731 732 733 733 734 735 736 737 738 740 741 742 742 744 745 746 747 749 750 752 753 755 756 758 759 760 761 761 762 762 763 764 764 765 766 766 766 767 767 767 767 767 767 767 767 767 767 766
711 712 713 714 714 715 716 717 717 718 719 720 721 722 723 723 724 725 726 727 728 729 730 731 732 732 733 735 736 737 738 739 739 740 742 743 744 745 746 747 749 750 752 753 755 756 757 758 758 759 760 761 761 762 762 763 763 764 764 764 764 765 765 765 765 764 764 764 764
710 712 712 713 714 715 715 716 717 717 717 718 719 720 721 722 723 723 724 724 725 726 727 728 729 731 732 733 734 735 735 736 737 738 739 740 741 742 743 745 746 748 749 751 752 754 755 755 756 757 757 758 759 760 760 761 761 761 762 762 762 762 762 762 762 762 762 762 761
709 710 711 712 712 713 714 714 715 716 717 717 718 719 720 721 722 722 722 722 723 724 725 726 727 728 729 730 731 732 733 733 734 735 737 738 739 740 741 742 743 745 747 748 750 752 753 753 754 754 755 756 757 757 758 758 758 759 759 759 760 760 760 759 759 759 759 759 759
706 707 708 709 709 710 711 712 712 714 715 716 717 717 718 719 720 720 720 720 720 721 722 723 724 726 727 727 728 729 729 730 732 733 734 735 736 737 738 739 740 742 744 746 748 749 751 752 752 753 753 754 754 755 756 756 756 757 757 757 757 757 757 757 756 756 756 756 756
703 703 704 704 705 706 706 707 709 710 711 712 713 714 716 717 717 718 718 718 718 719 720 721 722 723 724 725 725 725 726 727 729 731 732 733 734 735 735 737 737 739 741 743 745 747 748 750 751 752 752 752 752 752 753 753 754 754 754 754 754 754 754 754 754 754 754 753 753
699 700 700 700 700 701 701 702 703 704 706 707 709 710 712 713 714 714 715 715 716 716 717 717 719 721 722 722 722 723 724 726 727 729 730 731 732 733 733 734 735 737 739 741 743 745 746 748 749 750 751 751 751 751 751 752 752 752 752 752 752 752 752 752 752 751 751 751 751
697 697 697 697 697 697 697 696 696 697 698 700 702 704 706 707 708 709 710 711 712 712 713 715 717 718 719 719 720 722 723 724 725 727 728 729 730 731 732 732 734 735 737 739 741 743 744 746 747 747 748 749 749 749 749 749 750 750 750 750 750 749 749 749 749 749 749 749 748
696 696 696 696 695 695 694 693 692 691 691 692 694 697 699 701 702 703 705 707 708 709 711 713 715 715 716 717 719 720 721 722 724 725 726 727 728 729 730 731 732 733 735 737 739 741 742 743 744 745 746 747 747 747 747 747 747 747 747 747 747 747 747 747 747 747 747 747 746
695 695 694 694 694 693 693 693 692 690 688 687 688 690 692 694 695 697 700 703 706 708 710 712 713 714 715 717 718 719 720 721 722 723 724 725 727 727 728 729 730 732 733 736 737 739 740 741 742 743 744 744 745 745 745 745 745 745 745 745 744 744 745 745 744 744 744 744 744
695 695 694 693 693 692 693 693 694 693 691 688 687 687 687 689 692 694 698 701 704 706 708 709 711 712 714 715 717 718 719 720 721 722 723 724 725 726 727 728 729 730 732 733 735 736 737 739 740 740 741 742 742 743 743 743 742 742 742 742 742 742 742 742 742 742 742 742 742
696 695 695 694 693 693 693 694 695 695 694 691 688 686 686 688 691 693 696 698 701 703 705 706 708 709 711 712 714 716 717 718 719 720 722 723 724 725 726 726 727 728 730 731 732 733 735 736 737 738 739 740 740 740 740 740 740 740 740 739 739 739 740 740 740 740 740 740 740
696 696 695 694 694 694 694 694 695 696 696 694 691 689 688 689 691 692 694 696 698 700 702 703 705 707 708 710 711 713 714 716 717 718 719 720 722 722 723 723 724 726 727 728 729 731 732 733 734 735 736 737 737 738 738 738 738 737 737 737 737 737 737 737 737 737 737 737 737
695 695 694 694 694 694 695 695 696 696 696 695 694 692 692 691 691 692 693 695 697 698 699 700 702 703 705 706 707 709 710 712 713 714 716 717 718 719 720 720 721 723 724 725 727 728 729 730 731 732 733 735 735 735 735 735 735 735 735 735 734 734 735 735 735 735 735 735 735
692 692 692 692 692 693 694 694 695 695 695 695 694 694 692 691 691 691 691 693 694 694 695 696 698 699 699 701 702 703 705 707 709 710 712 713 714 715 716 717 718 719 721 722 723 725 726 727 728 730 731 732 732 732 732 732 732 732 732 732 732 732 732 732 733 733 733 733 733
689 689 690 690 690 690 691 692 692 692 692 692 692 692 691 689 688 688 688 689 690 690 691 692 693 694 695 696 697 699 701 702 704 706 707 708 709 711 712 713 715 716 717 719 721 722 723 725 726 727 728 729 729 730 730 730 730 730 730 730 730 730 730 730 730 730 730 730 731
687 686 687 687 687 687 687 688 688 688 688 689 689 688 687 687 686 685 685 685 686 686 687 688 689 690 691 693 694 695 697 698 699 701 702 704 705 707 708 710 711 712 714 716 717 719 720 722 723 724 725 726 727 727 727 727 727 727 727 727 728 728 728 728 728 728 728 728 728
683 683 683 683 683 683 683 684 683 684 684 684 685 684 684 684 683 683 683 683 683 683 683 684 685 686 688 690 691 692 692 694 695 697 698 700 702 703 705 707 708 709 711 712 714 716 717 719 720 721 722 723 724 724 725 725 725 725 725 725 726 726 725 725 725 725 726 726 726
681 680 680 680 679 679 680 680 679 680 680 681 681 681 681 682 682 682 682 682 681 681 681 682 682 683 685 686 687 688 689 690 692 693 695 697 699 701 702 703 705 706 708 709 711 713 714 716 717 718 719 720 721 722 722 722 723 723 723 723 723 723 723 723 723 723 723 723 723
Wind_Speed
45 45 44 43 42 42 42 42 43 42 43 43 43 44 44 42 41 41 41 41 41 41 41 41 41 41 40 41 42 43 43 43 43 42 41 39 38 37 35 33 31 30 29 28 28 27 27 27 27 27 27 28 28 28 28 28 27 27 26 26 25 25 24 24 24 24 24 24 23
45 46 45 43 41 40 40 41 42 42 43 44 45 45 45 44 43 42 42 42 42 42 41 41 40 40 40 40 41 42 42 42 42 41 40 39 37 36 34 32 31 30 29 28 28 28 28 28 27 27 28 28 28 28 28 28 27 27 27 26 25 24 23 23 24 24 24 23 22
46 45 44 43 42 41 40 40 41 42 43 44 45 45 45 45 44 43 42 43 43 42 41 41 40 40 40 40 40 41 41 41 41 41 40 38 37 35 34 32 31 30 29 29 29 29 28 28 28 28 28 29 29 29 29 28 27 26 26 26 25 23 22 22 22 22 21 21 20
46 45 45 45 44 44 42 41 41 42 43 43 44 44 45 45 44 43 43 43 42 42 42 41 40 40 39 39 40 40 40 40 40 39 39 38 37 35 34 32 31 30 30 29 29 29 29 28 28 28 29 29 29 29 28 27 27 26 26 25 24 23 22 22 21 21 20 19 19
45 46 46 46 47 46 45 43 42 41 41 41 42 43 44 44 44 43 42 41 41 42 42 41 40 39 39 39 39 39 39 39 38 38 38 37 36 35 34 32 31 31 30 30 30 29 29 28 28 28 29 29 29 29 28 27 26 26 25 24 23 22 22 21 20 20 19 19 19
44 45 46 46 47 46 45 43 42 41 41 41 41 42 43 44 43 42 41 41 41 42 42 41 40 39 38 38 38 38 38 38 37 37 36 36 36 35 34 32 32 31 30 30 30 29 29 28 28 29 29 29 29 29 28 27 26 25 25 24 23 22 21 21 20 20 20 20 19
43 44 44 45 45 45 44 44 43 42 41 41 41 43 44 44 44 44 43 42 42 41 40 40 39 39 38 38 38 38 38 37 36 36 36 36 36 35 34 33 32 31 31 30 30 29 29 29 29 29 29 29 29 28 28 27 26 26 25 24 23 22 22 21 21 21 20 21 21
42 43 44 45 45 45 45 44 43 42 41 41 42 44 44 44 44 44 44 43 41 40 40 40 39 39 39 38 38 38 37 36 35 35 35 36 36 35 34 33 32 31 31 30 30 30 29 29 29 29 29 29 28 28 27 27 26 26 25 24 23 23 22 22 21 21 21 22 22
39 41 43 44 44 45 45 44 44 43 42 43 43 44 44 44 44 44 43 42 42 41 41 40 40 39 39 38 38 38 37 36 35 35 36 36 36 35 34 33 32 32 31 31 30 30 29 29 29 30 29 29 27 27 26 27 26 26 25 24 24 23 22 22 22 22 22 23 23
39 40 41 42 43 44 44 43 44 44 44 44 44 43 43 42 43 43 43 43 43 42 41 40 40 39 39 38 38 37 37 36 35 36 36 36 36 35 34 34 33 32 32 31 31 30 29 29 30 30 30 29 29 28 27 27 26 25 25 24 24 23 23 23 23 23 23 23 24
41 40 40 40 42 42 42 42 42 43 44 44 43 43 42 42 42 43 43 43 42 41 41 41 40 39 39 38 38 37 36 36 36 36 36 36 36 35 34 34 33 33 32 32 31 30 30 30 30 30 30 29 29 28 27 27 26 26 25 25 24 24 24 24 23 23 23 23 24
41 40 40 40 40 40 40 41 41 42 43 43 43 43 42 42 42 42 42 42 41 42 42 41 40 39 39 39 38 37 36 36 36 36 36 36 36 35 34 34 33 32 32 31 31 30 30 30 30 30 30 29 29 28 27 27 26 26 26 26 25 25 25 25 24 23 23 23 24
40 39 39 39 39 39 39 40 41 41 42 42 43 43 42 42 42 42 41 41 42 42 41 41 40 40 39 38 38 37 37 36 36 36 36 36 35 35 34 33 33 32 32 31 31 30 30 30 30 30 30 29 29 28 28 27 27 26 26 26 26 26 26 25 25 24 23 24 24
38 38 38 38 38 38 38 39 40 40 41 42 42 42 42 42 41 41 41 41 41 41 41 40 40 39 39 38 38 37 37 37 37 37 36 36 35 35 34 33 33 32 32 31 31 30 30 30 30 30 30 29 29 28 28 27 27 27 27 27 26 26 26 26 25 24 24 24 25
37 37 38 37 37 37 38 39 39 39 40 41 41 41 41 40 40 40 40 40 41 41 40 39 39 39 39 38 37 37 37 37 37 37 36 36 35 35 34 34 33 32 32 31 31 30 30 30 30 30 29 29 29 28 28 28 27 27 27 27 27 26 26 25 25 24 24 25 26
36 37 37 37 37 37 38 38 38 38 39 40 40 40 39 39 39 39 39 40 40 39 39 39 39 39 38 38 37 37 37 37 37 37 36 36 36 35 35 34 34 33 32 31 31 30 30 30 30 29 29 29 29 28 28 28 27 27 27 27 27 26 26 26 25 25 25 25 26
36 36 36 37 37 38 39 39 39 38 38 39 39 39 39 38 38 38 38 39 39 39 38 39 39 38 38 38 37 37 37 37 37 37 37 37 36 36 36 35 34 33 32 32 31 30 30 30 30 29 29 29 28 28 28 28 27 27 27 27 27 27 27 26 26 26 26 26 27
36 36 36 37 38 39 39 40 39 39 38 38 38 38 38 38 38 38 38 39 39 39 39 39 39 38 38 38 38 38 38 37 37 37 37 37 37 37 36 36 35 34 32 31 31 30 30 30 30 29 29 28 28 28 28 28 28 27 27 27 27 27 27 27 26 26 26 27 27
35 36 36 37 38 39 39 39 39 39 38 38 37 37 38 38 38 38 38 38 39 39 39 39 39 39 39 39 39 38 38 38 38 38 38 38 38 37 37 36 35 33 32 31 31 30 30 30 30 29 29 28 28 28 28 28 28 28 28 27 27 27 27 27 27 26 26 27 27
35 35 36 37 38 39 39 39 39 38 37 37 36 36 37 37 38 38 38 38 38 39 39 39 39 39 39 39 39 39 39 39 39 39 39 39 38 37 37 36 35 33 32 31 30 30 30 30 30 29 28 28 28 28 28 28 28 28 28 28 28 28 28 27 27 27 27 27 27
35 35 36 37 37 38 38 38 37 37 36 36 36 36 36 36 37 37 38 38 38 38 38 39 39 39 39 39 39 39 39 39 39 39 39 39 39 38 37 36 34 33 31 30 30 30 30 30 30 29 28 28 28 28 28 28 28 28 28 28 28 28 28 27 27 26 26 26 27
35 35 35 36 36 36 37 36 36 36 35 35 35 35 35 35 36 37 37 38 38 38 38 39 40 40 40 40 40 40 40 39 39 39 39 39 39 38 37 36 34 32 31 30 30 31 31 30 30 29 28 28 28 28 28 28 28 28 28 28 28 28 27 27 26 26 26 26 26
34 34 34 34 34 34 34 34 34 34 34 35 35 35 35 35 36 36 36 36 37 37 38 39 39 40 40 40 40 40 39 38 38 38 39 39 39 38 37 35 33 32 31 31 31 31 31 31 30 29 29 28 28 28 28 28 28 28 28 28 28 27 27 26 26 25 25 25 25
32 32 32 32 32 32 32 32 33 33 34 34 34 34 35 35 35 35 35 36 36 37 38 38 39 39 39 40 39 39 38 38 37 37 38 38 38 37 36 35 33 32 31 31 31 31 32 32 31 30 29 29 28 28 28 28 28 28 28 28 28 27 26 26 25 25 24 24 24
30 30 30 30 30 30 31 31 31 32 33 33 34 34 34 34 34 34 34 35 36 37 38 38 38 38 38 38 38 38 38 38 38 38 38 38 38 37 36 34 33 32 31 31 31 32 32 31 31 30 29 29 29 28 28 28 29 29 28 28 27 26 26 25 25 24 24 24 24
29 29 29 29 29 30 30 30 31 31 32 32 32 33 33 33 33 34 34 35 36 37 37 38 38 38 37 37 37 38 38 38 38 38 38 38 37 36 35 34 33 32 32 32 32 31 31 30 28 28 27 27 27 27 27 27 27 27 27 26 25 25 25 25 25 25 24 24 24
28 28 29 29 30 30 30 31 31 31 31 31 32 32 33 33 33 33 34 35 36 37 37 37 37 37 36 36 37 37 38 38 37 37 38 38 37 36 36 35 34 33 32 32 32 31 30 28 26 25 24 24 24 25 25 25 25 25 24 24 24 25 25 25 25 25 24 23 24
29 29 30 30 30 31 31 31 31 31 31 32 32 32 33 33 33 34 35 35 36 36 36 36 37 36 35 34 35 37 38 38 37 37 37 37 37 37 36 35 34 33 32 32 31 30 29 28 26 25 24 23 23 23 23 23 23 22 23 23 24 24 25 25 25 24 23 23 24
30 30 30 31 31 32 32 32 32 32 32 32 33 33 33 33 34 35 35 35 35 35 35 36 35 34 33 33 34 35 36 37 37 36 36 36 36 36 36 35 34 33 32 31 31 30 29 28 27 25 25 24 24 23 23 22 22 21 21 22 22 22 23 23 23 22 22 24 25
30 30 30 31 31 32 33 33 34 34 34 33 33 34 34 34 35 36 36 36 36 36 36 35 34 33 33 33 33 33 34 35 35 35 35 35 35 35 35 35 34 33 32 30 30 29 28 27 26 25 25 25 24 24 24 23 22 21 21 21 21 21 22 22 22 23 24 24 26
30 30 30 31 31 32 34 35 35 35 34 34 34 34 35 35 36 37 37 37 36 36 35 34 33 33 34 33 32 31 32 33 34 34 34 35 35 35 35 35 34 33 31 30 29 29 28 27 26 25 25 25 24 25 25 24 23 22 22 22 22 22 23 23 24 24 25 26 27
29 29 30 30 31 33 34 34 34 34 34 34 35 35 36 37 37 37 37 36 34 33 32 31 32 32 32 31 30 30 31 31 32 33 34 35 35 35 35 34 34 33 31 29 29 28 27 26 26 25 24 24 24 25 25 26 25 24 24 24 24 25 25 25 25 26 27 27 26
28 28 29 30 31 32 33 33 33 33 33 33 34 35 36 36 36 35 34 33 32 31 31 31 31 31 31 30 29 29 29 30 32 33 34 34 34 34 34 33 33 33 31 29 28 28 28 26 25 25 24 24 24 24 25 25 25 25 25 25 26 26 27 27 27 27 26 25 25
27 28 28 29 30 31 31 31 31 31 31 31 32 33 33 33 32 31 31 31 30 30 30 31 31 31 31 30 30 29 29 29 30 32 33 33 33 33 33 32 33 32 30 29 28 28 28 26 25 25 24 24 23 24 24 25 25 25 26 27 27 27 27 27 27 26 26 25 25
27 27 27 28 29 28 28 28 28 28 29 29 29 30 30 29 29 29 29 29 29 28 29 29 30 30 30 30 30 30 29 29 30 31 32 33 33 33 32 33 33 32 30 29 28 28 27 27 26 25 24 23 23 24 24 24 25 26 27 27 27 27 27 27 27 26 26 26 25
26 26 27 27 27 27 26 26 25 26 26 27 27 26 26 26 27 28 28 28 27 27 27 28 28 28 28 29 30 30 31 30 31 31 32 33 33 33 33 34 34 33 31 29 29 28 27 26 25 24 23 23 23 23 24 24 24 25 26 27 27 27 27 27 27 27 27 26 25
27 27 27 27 26 26 25 24 24 24 25 26 25 25 25 25 27 28 28 27 27 27 27 28 28 28 29 30 30 31 32 32 32 32 33 33 34 34 34 35 35 34 32 30 29 28 27 26 25 24 23 23 23 23 23 23 24 24 25 26 27 27 27 27 27 26 26 25 24
27 27 28 27 27 26 25 24 24 24 25 26 26 26 26 27 27 28 29 28 28 28 28 28 29 29 30 31 31 32 33 33 34 34 34 34 35 35 35 36 36 35 33 31 30 28 27 26 24 23 23 23 23 23 23 22 22 23 23 24 24 25 25 26 26 25 25 24 23
27 28 28 28 28 27 26 25 25 26 27 27 27 27 28 28 28 28 29 29 29 29 29 29 29 30 30 30 30 31 33 34 35 35 35 35 36 36 36 36 36 35 33 32 30 29 27 26 25 24 23 23 23 23 22 21 22 22 22 22 22 22 22 23 24 24 23 23 21
28 28 29 29 29 28 27 27 27 28 29 29 28 28 29 29 29 28 28 28 29 29 29 29 30 30 30 30 30 31 32 34 35 35 35 35 36 36 37 37 36 35 34 33 31 29 28 26 25 24 23 23 23 23 22 22 22 22 22 21 20 19 20 21 22 22 22 21 20
28 28 29 30 30 30 29 29 29 30 30 30 30 30 29 28 28 27 27 27 28 28 28 28 29 29 29 29 29 30 31 32 34 35 35 35 35 36 36 36 36 36 35 33 31 30 28 27 25 24 23 23 23 23 22 22 21 21 20 20 19 18 17 18 20 21 22 21 19
Wind_Direction
226 226 225 225 225 225 225 225 225 225 224 224 223 222 222 221 220 221 221 221 220 221 222 223 224 225 226 225 225 225 225 225 225 226 227 229 230 232 233 234 235 235 235 235 235 236 236 237 238 240 241 243 243 244 245 246 248 250 252 254 256 258 260 262 263 264 264 262 261
226 226 226 225 225 225 226 226 226 225 225 225 225 224 223 222 221 222 222 221 222 222 223 224 225 225 225 226 227 226 226 225 224 225 226 228 230 231 232 233 233 233 233 233 233 233 234 235 236 237 239 241 242 243 244 246 248 250 252 254 256 257 258 260 263 264 265 264 261
226 226 226 225 225 225 225 226 226 226 225 225 225 225 224 223 223 222 223 223 223 223 223 223 224 225 226 227 227 227 227 226 225 225 225 226 228 230 230 231 231 231 231 231 232 232 233 234 235 236 238 239 241 242 244 246 248 250 252 254 255 256 256 258 260 262 262 261 259
226 226 225 225 225 224 224 225 226 226 225 225 225 225 225 224 224 223 223 224 223 223 222 223 224 225 226 226 227 227 227 227 226 225 225 226 227 228 229 229 229 229 229 230 230 231 233 234 235 236 237 239 241 242 244 246 248 250 252 253 255 255 255 256 258 259 259 258 257
226 226 226 226 226 226 226 226 227 227 226 226 225 225 225 225 224 223 223 223 222 223 223 224 224 225 226 226 227 227 227 226 225 225 224 225 226 226 227 227 227 227 228 229 229 230 231 233 234 235 237 239 241 243 245 247 249 250 252 253 253 254 254 255 256 257 256 255 255
227 227 227 227 227 227 227 227 227 228 227 226 226 225 225 225 224 223 223 223 223 224 224 224 224 224 225 225 226 226 226 226 225 224 223 223 224 225 225 225 226 226 227 227 228 229 230 231 233 235 237 239 241 243 245 247 248 249 251 252 252 252 253 254 255 255 255 255 255
230 229 229 228 228 228 227 227 227 228 228 227 227 226 226 226 225 224 223 224 224 224 223 223 223 223 223 224 225 225 225 225 224 222 221 221 222 223 223 224 224 225 225 226 227 228 229 230 231 234 236 238 240 242 244 245 246 248 249 250 251 252 252 253 255 255 255 256 256
232 231 231 230 230 229 228 227 227 227 227 227 228 228 227 227 226 225 225 224 223 223 223 222 222 223 223 224 224 225 225 224 221 220 219 219 220 221 222 222 223 223 224 225 225 226 227 229 231 233 235 237 239 241 243 244 246 247 248 249 251 252 252 253 255 256 256 258 258
232 232 232 232 231 230 229 228 227 227 227 228 228 229 229 228 227 226 225 224 224 224 224 223 223 223 224 224 225 225 224 222 219 217 216 217 218 219 220 221 221 222 223 224 224 225 227 228 231 233 235 236 237 239 242 245 246 248 249 250 251 252 253 254 256 257 258 259 260
232 232 232 231 231 231 230 229 228 228 228 229 229 230 229 229 228 227 226 225 225 225 224 224 224 223 223 224 224 224 223 220 217 216 215 216 217 218 219 220 220 220 221 222 224 224 226 228 230 233 235 237 238 240 243 246 247 249 250 250 251 253 254 256 257 258 259 260 261
233 233 232 232 231 231 230 228 228 228 228 229 230 230 229 229 228 228 228 227 226 225 225 225 224 223 223 223 224 223 222 219 216 215 215 216 217 218 219 220 220 221 221 222 223 224 225 227 230 233 235 237 239 241 243 245 247 249 250 250 251 253 255 256 257 258 259 260 261
233 233 233 233 232 231 229 228 228 228 228 228 229 229 229 229 229 228 228 227 226 226 226 226 225 224 224 224 223 222 221 218 216 216 216 217 218 219 220 221 221 222 222 223 223 224 225 227 230 233 235 237 238 240 242 243 245 247 249 251 252 253 255 257 258 258 259 260 262
234 234 233 233 232 231 229 228 228 228 228 228 229 229 229 229 229 228 227 226 226 226 226 226 226 225 225 224 223 221 220 218 217 216 217 218 219 219 220 221 221 222 223 224 224 225 226 229 231 233 234 236 238 240 241 243 244 246 248 250 252 254 255 257 259 259 260 261 262
234 234 233 233 232 231 229 228 228 228 228 228 229 229 229 228 228 227 227 226 226 226 226 225 225 225 225 224 223 222 220 218 217 216 217 218 219 220 220 221 222 222 223 224 225 226 227 230 232 234 235 236 238 240 241 243 244 245 247 250 252 254 256 258 260 260 261 262 263
234 233 233 232 231 230 229 228 228 228 228 228 229 229 228 228 227 227 226 226 226 226 225 224 224 224 225 224 224 223 221 219 217 217 217 218 219 220 221 221 222 223 223 224 225 227 229 231 233 234 236 237 239 240 242 243 244 246 248 250 252 255 257 259 260 261 262 263 265
234 233 232 231 230 230 229 229 228 228 228 229 229 229 228 227 227 226 225 225 225 225 224 224 224 223 223 223 223 222 221 219 218 217 217 218 219 220 221 222 222 223 224 225 226 228 230 232 233 235 236 238 240 241 242 243 245 247 249 251 253 255 258 259 261 262 264 266 266
233 232 231 230 230 229 229 229 229 228 228 229 229 228 227 227 226 225 225 225 224 224 223 224 224 223 222 222 221 221 219 218 218 217 218 219 220 221 221 222 223 224 225 225 227 228 230 232 234 235 236 238 240 242 243 244 246 247 249 251 253 256 258 260 262 264 266 267 267
233 232 231 230 230 230 230 229 229 229 229 229 229 228 227 227 226 225 225 225 224 223 223 223 223 223 222 221 220 220 218 218 218 218 219 220 221 222 222 223 224 224 225 226 228 230 232 233 234 235 236 238 240 242 243 245 246 248 250 252 254 256 259 261 263 265 267 268 268
233 232 231 230 230 231 231 230 230 230 229 229 229 229 228 227 226 225 225 224 224 224 224 223 223 223 223 222 221 220 219 218 219 219 220 221 222 223 223 223 224 224 226 227 229 232 233 234 234 235 236 238 240 241 243 245 246 248 250 252 254 257 259 261 263 266 268 269 269
233 233 232 232 232 232 232 231 231 231 231 231 230 229 229 228 227 226 225 224 224 224 224 224 223 223 222 222 222 221 220 220 220 220 221 222 222 222 223 223 224 224 226 228 230 232 234 234 235 235 236 237 239 241 242 244 246 248 250 252 255 257 259 262 264 267 269 270 270
235 234 234 234 234 233 232 232 232 231 231 231 231 230 230 229 228 227 226 226 225 224 224 224 224 223 222 222 222 222 221 221 221 221 221 222 222 222 223 223 223 224 226 229 231 233 234 234 235 235 236 237 239 241 242 244 246 248 251 253 255 258 261 263 266 268 269 270 271
237 237 236 236 235 234 234 233 233 232 231 231 231 231 231 230 229 228 228 227 226 225 224 225 224 224 224 223 223 223 222 222 221 221 222 222 222 223 223 223 222 223 226 228 231 233 234 234 235 235 236 237 239 241 242 244 246 248 251 254 257 259 262 265 267 268 269 271 272
239 239 238 237 236 235 235 234 233 232 231 231 231 231 231 230 230 229 228 227 226 225 225 225 225 225 225 226 225 224 222 221 220 221 222 222 222 222 222 221 221 222 225 228 231 232 233 233 234 235 236 237 239 241 242 244 246 248 251 255 258 261 263 265 266 267 269 271 272
241 240 239 238 237 236 235 234 233 232 231 231 231 231 231 231 230 229 228 227 226 226 226 226 226 226 226 226 226 225 222 220 219 220 220 221 221 221 220 220 220 222 225 229 231 233 233 233 233 234 235 237 239 240 242 244 246 249 252 255 259 262 263 264 265 266 268 270 271
242 240 239 238 237 236 235 234 233 233 232 232 232 231 231 231 230 229 227 226 226 226 226 226 226 226 226 225 225 224 223 221 220 219 219 220 220 219 219 218 219 222 225 229 231 233 233 233 233 234 235 237 238 240 243 245 247 250 253 256 259 261 262 264 265 266 267 269 270
242 240 239 238 238 237 236 235 234 234 234 233 232 232 231 231 230 229 228 227 226 226 226 226 226 225 225 224 224 223 223 221 221 220 219 218 218 218 217 217 218 221 225 229 231 232 232 231 232 233 236 238 239 241 243 245 248 251 253 256 258 259 260 261 263 264 266 267 269
240 238 238 238 237 235 235 235 234 234 234 233 232 232 231 231 230 229 228 227 227 227 226 225 225 224 224 223 223 222 221 220 220 219 219 218 217 216 216 217 218 221 225 229 231 231 229 227 226 228 232 237 240 242 243 246 249 252 254 256 257 258 258 259 260 262 263 264 266
238 237 236 235 233 232 233 233 232 231 232 232 232 232 232 231 230 229 229 228 227 226 225 224 224 223 223 222 222 221 221 220 219 218 218 218 218 217 216 216 218 221 225 229 231 230 228 225 223 224 227 231 237 241 244 246 248 250 252 253 255 256 256 256 258 260 261 262 266
237 236 234 231 230 229 229 228 227 228 229 230 231 231 230 229 229 229 228 227 226 224 222 222 222 222 221 221 221 221 220 219 218 218 217 217 217 217 217 218 219 221 225 229 230 230 228 225 223 224 225 226 231 236 240 243 245 247 248 249 250 251 251 254 256 258 260 264 267
237 235 232 231 229 228 227 226 225 226 226 227 227 227 227 227 227 227 227 226 224 223 223 222 221 220 220 220 220 220 219 218 218 217 216 216 216 216 217 218 219 221 225 228 230 230 228 225 224 225 226 226 228 231 236 239 242 244 245 247 248 249 250 253 257 259 262 265 268
237 234 232 231 230 229 228 228 226 224 223 222 222 222 223 224 224 225 225 224 224 224 224 223 222 221 221 221 220 219 218 218 217 216 215 215 216 216 218 219 220 221 224 227 229 229 228 225 224 226 228 228 228 231 234 237 240 242 245 247 249 250 252 255 257 261 263 265 267
237 235 233 232 231 231 232 231 229 226 222 219 218 218 219 221 223 224 224 223 223 223 223 222 222 222 222 221 220 219 218 217 216 215 215 216 217 217 218 219 220 222 224 227 229 229 227 225 225 227 229 229 230 232 235 238 241 244 246 248 250 252 254 255 258 260 263 266 268
240 237 235 234 234 234 234 233 232 229 225 220 218 217 218 220 221 222 221 221 221 221 221 221 221 222 221 220 219 219 218 218 217 216 217 217 218 218 218 219 220 222 223 226 228 228 226 225 225 227 229 230 231 233 236 239 242 245 247 249 251 253 254 256 258 260 263 266 269
243 240 238 238 237 237 236 235 234 232 229 225 221 219 218 218 217 217 217 218 219 220 221 222 222 222 222 221 219 218 218 218 218 217 217 218 218 218 217 218 220 222 223 226 227 227 226 225 225 227 228 230 232 234 237 239 242 245 248 250 252 254 255 257 259 261 264 267 270
246 243 242 242 241 240 239 237 235 234 232 230 227 223 220 218 216 216 217 218 218 219 220 221 222 222 222 221 220 218 218 217 217 217 217 218 217 217 217 218 220 222 223 225 227 226 225 225 225 226 228 230 232 235 237 240 242 245 248 250 252 254 256 258 260 263 265 267 268
248 245 244 244 244 243 242 240 238 237 236 235 232 228 224 220 219 219 219 218 218 218 218 219 219 219 219 218 218 217 217 216 216 217 217 217 216 216 217 219 221 222 224 225 226 225 224 224 225 226 227 229 232 234 237 239 242 245 248 250 252 254 256 259 261 263 264 265 266
249 246 245 245 245 244 243 242 241 239 238 237 235 232 227 223 221 221 219 217 216 216 217 217 216 215 215 215 215 215 215 215 215 216 216 216 215 215 216 219 221 223 223 224 224 223 223 223 224 224 225 227 230 233 236 239 242 244 247 250 252 255 257 259 261 262 263 263 264
251 248 246 245 244 243 242 241 240 239 238 238 236 233 229 225 223 221 218 216 214 214 215 215 214 214 214 214 214 214 214 214 214 214 215 215 215 215 216 218 221 223 223 223 223 222 221 222 223 223 223 225 228 232 234 237 241 243 246 249 252 255 257 259 260 261 262 262 262
254 250 247 244 242 241 240 239 238 238 238 237 236 233 230 227 224 221 219 217 215 214 214 214 214 214 214 213 212 213 213 214 214 214 214 214 215 215 216 217 220 222 223 222 222 221 221 222 222 222 222 224 227 231 233 236 240 243 246 249 252 254 256 257 258 259 261 261 260
258 253 249 245 242 240 239 238 238 238 238 237 235 233 230 227 225 223 221 218 217 216 215 215 215 214 213 211 211 211 212 213 213 213 214 214 215 216 216 217 220 222 222 222 222 221 221 222 222 221 221 223 227 230 233 235 239 242 245 248 250 252 253 255 257 259 260 261 260
261 255 250 246 243 240 238 237 238 239 238 237 235 233 232 230 228 225 221 219 217 216 215 215 215 213 212 210 210 210 211 211 212 212 213 214 215 215 216 217 219 221 222 222 222 222 222 222 222 221 220 222 225 228 231 234 237 240 243 245 247 249 252 255 257 259 261 261 261